Flag for Germany Weather for the Past 2 Weeks in Garmisch-Partenkirchen, Bavaria, Germany

Now
43 °F

Passing clouds.


Feels Like: 41 °F
Forecast: 29 / 62 °F
Wind: 3 mph from Southeast

Location: Innsbruck-Flughafen

Current Time: May 5, 2016 at 12:47:27 AM

Latest Report: May 4, 2016 at 11:50 PM


Visibility: N/A

Pressure: 30.30 "Hg (27.82 "Hg at 699m altitude)

Humidity: 81%

Dew Point: 37 °F

Location of Garmisch-PartenkirchenLocation

Historic Weather in Garmisch-Partenkirchen — Graph

°F

Garmisch-Partenkirchen Temperature Yesterday

Maximum temperature yesterday: 52 °F (at 2:20 PM)
Minimum temperature yesterday: 43 °F (at 2:50 AM)
Average temperature yesterday: 47 °F

High & Low Weather Summary for the Past Weeks

 TemperatureHumidityPressure
High75 °F (Apr 21, 3:20 PM)100% (Apr 25, 8:50 AM)30.36 "Hg (Apr 25, 8:50 AM)
Low28 °F (Apr 28, 5:50 AM)21% (Apr 30, 5:50 PM)29.56 "Hg (Apr 26, 1:50 PM)
Average48 °F69%29.98 "Hg
* Reported Apr 19 7:20 PM — May 4 7:50 PM, Garmisch-Partenkirchen, Weather by CustomWeather, © 2016

Note: Actual official high and low records may vary slightly from our data, if they occured in-between our weather recording intervals... More about our weather records

Advertising

Garmisch-Partenkirchen Weather History for the Previous 24 Hours

Scroll right to see more
 ConditionsComfort  
Time TempWeatherWind HumidityBarometerVisibility
7:50 PM
Wed, May 4
48 °FPartly sunny.3 mph71%30.27 "HgN/A
7:20 PM48 °FBroken clouds.5 mph62%30.27 "HgN/A
6:50 PM50 °FBroken clouds.5 mph58%30.27 "HgN/A
6:20 PM50 °FBroken clouds.6 mph58%30.27 "HgN/A
5:50 PM50 °FBroken clouds.3 mph62%30.27 "HgN/A
5:20 PM50 °FBroken clouds.5 mph62%30.27 "HgN/A
4:50 PM50 °FBroken clouds.7 mph58%30.27 "HgN/A
4:20 PM50 °FBroken clouds.7 mph58%30.27 "HgN/A
3:50 PM50 °FBroken clouds.9 mph58%30.27 "HgN/A
3:20 PM50 °FBroken clouds.9 mph62%30.27 "HgN/A
2:50 PM52 °FBroken clouds.8 mph54%30.30 "HgN/A
2:20 PM52 °FBroken clouds.2 mph50%30.30 "HgN/A
12:50 PM48 °FBroken clouds.3 mph66%30.30 "HgN/A
12:20 PM50 °FBroken clouds.3 mph67%30.30 "HgN/A
11:50 AM48 °FBroken clouds.7 mph71%30.30 "HgN/A
11:20 AM46 °FBroken clouds.7 mph76%30.30 "HgN/A
10:50 AM46 °FBroken clouds.7 mph76%30.30 "HgN/A
9:50 AM46 °FSprinkles. Broken clouds.3 mph82%30.30 "HgN/A
9:20 AM45 °FLight rain. Broken clouds.3 mph81%30.30 "HgN/A
8:50 AM45 °FBroken clouds.3 mph87%30.30 "HgN/A
8:20 AM45 °FBroken clouds.5 mph87%30.30 "HgN/A
7:50 AM45 °FBroken clouds.3 mph87%30.30 "HgN/A
6:50 AM43 °FSprinkles. Partly cloudy.5 mph93%30.30 "HgN/A
6:20 AM43 °FPartly cloudy.5 mph93%30.30 "HgN/A
5:50 AM43 °FPartly cloudy.2 mph87%30.27 "HgN/A
5:20 AM43 °FPartly cloudy.3 mph87%30.27 "HgN/A
4:50 AM43 °FPassing clouds.3 mph93%30.27 "HgN/A
4:20 AM43 °FLight rain. Passing clouds.2 mph93%30.27 "HgN/A
3:50 AM43 °FLight rain. Passing clouds.1 mph87%30.27 "HgN/A
3:20 AM45 °FPassing clouds.2 mph81%30.24 "HgN/A
2:50 AM43 °FPartly cloudy.3 mph87%30.24 "HgN/A
2:20 AM45 °FPartly cloudy.8 mph81%30.24 "HgN/A
1:50 AM45 °FLight rain. Passing clouds.7 mph76%30.24 "HgN/A
1:20 AM45 °FSprinkles. Passing clouds.3 mph76%30.24 "HgN/A
12:50 AM46 °FPassing clouds.7 mph76%30.24 "HgN/A
Weather by CustomWeather, © 2016

See weather overviewHow to use our weather pages